Погода Екатерино-Никольское

Погода Екатерино-Никольское : погода сейчас, прогноз погоды и архив. Всё, что Вы хотите узнать о погоде Екатерино-Никольское!

Хотите узнать прогноз погоды Екатерино-Никольское? Тогда Вам сюда: Погода Екатерино-Никольское

Поиск расширенной информации на нашем сайте:

Другие новости

Новости СМИ2

Главная страница сайта

Новости сайта

03.07.2017

Напоминаем, что на нашем специализированном сайте Метеоцентр.Азия вы можете получить высокодетализированные автоматические прогнозы погоды по пунктам России, СНГ и мира в авиационном формате (включающие направление и скорость ветра, видимость, явления погоды, количество и форму облачности, нижнюю и верхнюю границу облачности).


Погода Екатерино-Никольское - сегодня

Время (UTC), дата Ветер
(°,м/с) 
Видим.   Явления Облачность Т
(°С)
Тd
(°С)
f(%) Тe
(°С)
Pmin
(гПа)
dP
(гПа)
Po
(мм)
O2
(г/м3)
Тmin Tmax R s Состояние
почвы
06 23.07.17 160 (Ю) 10 км  слаб. ливневой дождь  10/10 600 м кучево-дожд. 
[Cb cap]
+23.1 +20.8 87 +44  1000.2  -1.2  744  271           
09 23.07.17 220 (ЮЗ) 20000 м  {ливн. осадки}  10/8 600 м кучево-дожд., средняя, верхняя 
[Cb cap|Ac As|Ci fib]
+24 +20.5 81 +44  998.7  -1.5  743  270    +24.5  0.5     
12 23.07.17 340 (С) 20000 м  {ливн. осадки}  10/8 600 м кучево-дожд., средняя, верхняя 
[Cb calv|Ac trans|Ci fib]
+17.6 +16.1 91 +30  1000.4  1.5  744  278           
15 23.07.17 310 (СЗ) 20000 м    10/4 600 м средняя, верхняя 
[Sc|Ac trans|Ci fib]
+17 +15.9 93 +27  1000.4  0.1  744  279           
18 23.07.17 230 (ЮЗ) 20000 м    10/3 600 м средняя, верхняя 
[Sc|Ac trans|Ci fib]
+15 +14.4 96 +24  1000.1  -0.3  744  281           
21 23.07.17 тихо ()   20000 м    8/4 600 м средняя, верхняя 
[Sc|Ac trans|Ci fib]
+16.3 +15.9 97 +27  1000.3  -0.3  744  279  +14.1        влажная 
00 24.07.17 310 (СЗ) 20000 м    10/6 600 м кучево-дожд., средняя, верхняя 
[Cb cap|Ac und|Ci fib]
+20.6 +15.9 74 +31  1000.8  0.6  744  275           
03 24.07.17 320 (СЗ) 20000 м    10/5 600 м кучево-дожд., средняя, верхняя 
[Cb cap|Ac und|Ci fib]
+23.3 +15.7 62 +33  999.9  -0.8  744  273           
06 24.07.17 360 (С) 20000 м    10/5 600 м кучево-дожд., средняя, верхняя 
[Cb cap|Ac As|Ci fib]
+23.8 +15 58 +33  998.3  -1.6  743  272           
09 24.07.17 330 (СЗ) 20000 м    10/3 600 м кучево-дожд., средняя, верхняя 
[Cb cap|Ac As|Ci fib]
+22.6 +11.8 50 +26  998.9  0.6  743  274    +24.5       
12 24.07.17 320 (СЗ) 20000 м    10/6 600 м кучево-дожд., средняя, верхняя 
[Cb cap|Ac As|Ci fib]
+17.9 +11.2 65 +21  1001.3  2.2  745  280           
15 24.07.17 280 (З) 20000 м    5/3 600 м верхняя 
[Sc|Ci fib]
+14.6 +10 74 +16  1001.8  0.4  745  283           
18 24.07.17 290 (З) 20000 м    3/1 600 м верхняя 
[Sc|Ci fib]
+14.3 +11 81 +17  1001.7  -0.1  745  283           
21 24.07.17 290 (З) 20000 м    4/3 600 м верхняя 
[Sc|Ci fib]
+15 +10.7 75 +17  1001.9  0.3  745  283  +13.9        влажная 
00 25.07.17 310 (СЗ) 5-10{10}  20000 м    8/3 600 м кучево-дожд., верхняя 
[Cb calv|Ci fib]
+18.2 +12.2 68 +22  1002.5  0.6  746  279           
03 25.07.17 310 (СЗ) 2{10}  20000 м    10/6 600 м кучево-дожд., верхняя 
[Cb calv|Ci fib]
+21.2 +13.2 60 +27  1002.6  0.2  746  276           
06 25.07.17 330 (СЗ) 20000 м    8/4 600 м кучево-дожд., верхняя 
[Cb calv|Ci fib]
+22.8 +12.5 52 +28  1002.7  -0.1  746  275           
09 25.07.17 320 (СЗ) 20000 м    4/3 600 м верхняя 
[Cu med, cong|Ci fib]
+23.9 +12.1 48 +28  1003.3  0.7  746  274    +24.6       
12 25.07.17 270 (З) 20000 м    6/3 600 м кучево-дожд., верхняя 
[Cb cap|Ci fib]
+16.3 +13.3 82 +24  1005.6  748  282           
15 25.07.17 290 (З) 20000 м    8/0 верхняя 
[Ci fib]
+15 +13.1 88 +22  1006  0.4  748  283           
18 25.07.17 290 (З) 20000 м    8/0 верхняя 
[Ci fib]
+14 +12.6 91 +20  1006.4  0.4  748  284           
21 25.07.17 320 (СЗ) 20000 м    8/0 верхняя 
[Ci fib]
+14.5 +11.7 83 +19  1007.4  749  284  +13.1        влажная 
00 26.07.17 330 (СЗ) 20000 м    10/0 
+20.7 +13.7 64 +27  1008.4  3.1  750  278           
03 26.07.17 340 (С) 20000 м    10/6 600 м средняя, верхняя 
[Cu Sc|Ac trans|Ci fib]
+23.8 +13.8 54 +30  1008.1  -0.2  750  275           
06 26.07.17 240 (ЮЗ) 20000 м    10/8 600 м кучево-дожд., средняя, верхняя 
[Cb cap|Ac trans|Ci fib]
+25.1 +14.2 51 +32  1007.1  -1  749  274           
Время (UTC), дата Ветер
(°,м/с) 
Видим.   Явления Облачность Т
(°С)
Тd
(°С)
f(%) Тe
(°С)
Pmin
(гПа)
dP
(гПа)
Po
(мм)
O2
(г/м3)
Тmin Tmax R s Состояние
почвы

Для получения пояснительной информации подведите курсор к названию столбца.

ПОГОДА Екатерино-Никольское - архив

Всё, что Вы хотите узнать о погоде Екатерино-Никольское - удобно и подробно!

Выберите нужную дату (начиная с 1 января 2015* года) и нажмите кнопку "Найти".
Будут отображены архивные сводки погоды по пункту Екатерино-Никольское, начиная с указанной даты.


Отображать данные в формате CSV (для использования в таблицах Excel)


Внимание! Наш архив погоды предназначен исключительно для личного некоммерческого использования в познавательных целях. Если Вам необходимы официальные справки о состоянии погоды (для производственных, юридических, коммерческих и т.п. целей), обращайтесь в органы Росгидромета.

*Примечание: данная дата относится к архиву по метеостанциям СССР (Россия, СНГ, Балтия).
Архив по метеостанциям Зарубежной Европы и Азии (кроме Китая) хранится 10 дней, по другим регионам земного шара (Китай, Африка, Америка, Австралия, Океания) - 1 день.

Екатерино-Никольское - район местоположения метеостанции


Название, широта, долгота, высота метеостанции:
Екатерино-Никольское 47.7°ш. 131°д. 73 м над ур. моря [Российская Федерация]

Дополнительная информация

В oтличие oт бoльшинства пoгoдных сайтoв мы публикуем пoдрoбную метеoинфoрмацию в детальнoм прoфессиoнальнoм фoрмате.

Характеристики температуры и влажнoсти вoздуха измеряются на высoте 2 м в тени вдали oт зданий и деревьев.
Скoрoсть ветра измеряется на высoте 10 м (на урoвне рoста челoвека скoрoсть ветра ниже в 1.5-2 раза). Если метеoстанция нахoдится в гoрoде или в лесу, тo скoрoсть ветра занижена на 2-4 м/с пo сравнению с oткрытым местoм. Скoрoсть ветра над акватoриями крупных рек и oзёр, а также на вершинах хoлмoв на 2-5 м/с выше, чем в oбычных услoвиях.
Атмoсфернoе давление в разных тoчках местнoсти мoжет значительнo oтличаться oт давления на метеoстанции, в зависимoсти oт услoвий рельефа (при пoдъёме на 10 м давление пoнижается примернo на 1 мм рт.ст.).